TITAN 3C TRANSTAGE DEB, 39296

Orbit data source: Space-Track

TITAN 3C TRANSTAGE DEB, 39296 is space debris in GEO originally from a launch on Thu, 26 Sep 1968 UTC launched from the Air Force Eastern Test Range (AFETR). Debris objects in space refer to the collection of defunct objects orbiting the Earth. Examples of debris include non-operational satellites, rocket bodies, and fragments generated from explosions, collisions, or faulty payload assembly.

Not visible in the next 10 days
Identifier
39296, 1968-081AG
Orbit
GEO
Country
Flag of USUS
Related business
Manufacturer
Unknown
Mission
Spacecraft
Bus & Motor
Unknown
Mass
Unknown
Launch date (UTC)
1968-09-26 (58 years ago)
Launch vehicle
Unknown
Launch site
Air Force Eastern Test Range (AFETR)
Object type
Payload
Rocket body
Debris
Shape & HBR
Unknown shape, 1.1 m
Radar Cross Section
Medium (>0.1 m² and <1 m²)

Expand to show TLE details & history
Last TLE update: 17 hours ago

TLE from 17 hours ago
0 TITAN 3C TRANSTAGE DEB
1 39296U 68081AG  26257.74910082 -.00000176  00000-0  00000-0 0  9990
2 39296   1.7377  36.4271 0154195 301.7788  82.1672  1.00567889 52599
Epoch: 2026-09-14T17:58Z
TLE epoch observation values (Epoch: 2026-09-14T17:58:42.310Z)
Latitude
0.73374°
Longitude
158.71563°
Altitude
35,622.53 km
Speed
3.084 km/s
True Right ascension
04h 08m 28s
True Declination
0° 43' 59"
Sunlit
Object was in daylight at epoch
Visualization orbit readout
Latitude
Unknown
Longitude
Unknown
Altitude
Unknown
Speed
Unknown
Apparent Right ascension
Unknown
Apparent Declination
Unknown
Sunlit
N/A
Visualization observer readout
Local Sidereal Time
03:21:57
Azimuth
Unknown
Elevation
Unknown
Doppler factor
Unknown
Orbital elements
Apogee altitude
36,353.76 km
Perigee altitude
35,055.963 km
Semi-major axis
42,082.998 km
Eccentricity
0.01542
Inclination
1.7377°
RAAN
36.4271°
Arg. of periapsis
301.7788°
True anomaly
83.92199°
Mean anomaly
82.1672°
Eccentric anomaly
83.04417°
Mean motion
0.25141 °/min
Orbital period
1,431.92 mins
BSTAR
0
Loading maneuver chart data...
Computing Atmospheric mass density...

Documentation

Showing up to 5 results
|